Terug naar catalogus

STARLINK-6033

ActiefCommunicatieSSO
NORAD 56322·PAYLOAD·🇺🇸 United States

Gelanceerd Apr 27, 2023 vanaf Vandenberg Space Force Base

Loading…

Volgende Passages (komende 24 uur)

TLE

VersSource: CelesTrak SupGP

Epoch: Sep 15, 2026, 02:11 UTC

1 56322C 23058F   26258.09145833  .00507590  00000+0  28085-1 0  2589
2 56322  97.2853 252.2645 0001610  86.1418 104.1307 15.13687064    14

Volg STARLINK-6033 in realtime met AllMySat

Download on the App Store